{"data":{"norad_id":58053,"intl_designator":"2023-158C","name":"STARLINK-30577","alt_names":[],"object_type":"PAYLOAD","status":"ACTIVE","operator":null,"country":"US","launch_date":"2023-10-13","launch_site_code":"AFETR","launch_vehicle":null,"mission":null,"orbit_class":"UNKNOWN","rcs_meters":null,"size_class":null,"mass_kg":null,"dimensions":null,"purposes":["comms"],"wikipedia_slug":null,"has_3d_model":false,"image_url":null,"decayed_at":null,"tle_current":{"epoch":"2026-05-24T21:12:54.613152Z","epoch_age_seconds":82259,"freshness":"FRESH","line1":"1 58053U 23158C   26144.88396543  .00001766  00000+0  73677-4 0  9996","line2":"2 58053  43.0027 316.6626 0001204 271.3461  88.7252 15.27582132145222","mean_motion":15.27582132,"eccentricity":0.0001204,"inclination_deg":43.0027,"raan_deg":316.6626,"arg_perigee_deg":271.3461,"mean_anomaly_deg":88.7252,"bstar":7.3677e-5,"rev_number":14522,"period_min":94.266617148413,"perigee_km":482.21662603476,"apogee_km":483.86879810943,"semimajor_km":6861.1797120721,"source":"CELESTRAK","updated_at":"2026-05-25T13:38:18.499025Z"}}}